Flag for Switzerland Weather past 2 weeks in Meyrin, Geneva, Switzerland

Now
75 °F

Broken clouds.


Feels Like: 77 °F
Forecast: 57 / 76 °F
Wind: 1 mph from North

Location: Geneva Cointrin Airport

Current Time: Jul 23, 2014 at 7:10:31 PM

Latest Report: Jul 23, 2014 at 6:20 PM


Visibility: N/A

Pressure: 29.89 "Hg

Humidity: 65%

Dew point: 63 °F

Location of MeyrinLocation

Historic Weather in Meyrin — Graph

°F

Meyrin temperature yesterday

Maximum temperature yesterday: 72 °F (at 1:50 PM)
Minimum temperature yesterday: 61 °F (at 12:20 AM)
Average temperature yesterday: 65 °F

Past Weeks' High & Low Weather Summary

 TemperatureHumidityPressure
High90 °F (Jul 18, 5:50 PM)100% (Jul 9, 12:20 AM)30.18 "Hg (Jul 9, 12:20 AM)
Low52 °F (Jul 9, 1:20 AM)24% (Jul 18, 6:20 PM)29.86 "Hg (Jul 19, 11:50 PM)
Average65 °F79%30.02 "Hg
* Reported Jul 8 5:20 PM — Jul 23 5:50 PM, Meyrin, Weather by CustomWeather, © 2014

Note: Actual official high and low records may vary slightly from our data, if they occured in-between our weather recording intervals... More about our weather records

Advertising

Meyrin weather history for previous 24 hours

 ConditionsComfort  
Time TempWeatherWind HumidityBarometerVisibility
5:50 PM
Jul 23
73 °FBroken clouds.2 mph69%29.89 "HgN/A
5:20 PM75 °FLight rain. Broken clouds.2 mph61%29.89 "HgN/A
4:50 PM75 °FPartly sunny.1 mph61%29.89 "HgN/A
4:20 PM75 °FPartly sunny.2 mph65%29.92 "HgN/A
3:50 PM75 °FBroken clouds.3 mph65%29.92 "HgN/A
3:20 PM75 °FBroken clouds.3 mph65%29.92 "HgN/A
2:20 PM75 °FBroken clouds.6 mph65%29.92 "HgN/A
1:20 PM73 °FBroken clouds.6 mph69%29.92 "HgN/A
12:20 PM73 °FBroken clouds.8 mph69%29.92 "HgN/A
7:20 AM66 °FBroken clouds.7 mph88%29.95 "HgN/A
6:50 AM66 °FPassing clouds.7 mph88%29.95 "HgN/A
6:20 AM66 °FPassing clouds.9 mph88%29.95 "HgN/A
5:50 AM66 °FPassing clouds.9 mph88%29.95 "HgN/A
5:20 AM66 °FPassing clouds.10 mph88%29.95 "HgN/A
4:50 AM66 °FPassing clouds.8 mph88%29.95 "HgN/A
4:20 AM64 °FPassing clouds.1 mph94%29.95 "HgN/A
3:50 AM64 °FPassing clouds.No wind94%29.95 "HgN/A
2:50 AM64 °FPassing clouds.No wind94%29.98 "HgN/A
1:50 AM64 °FPassing clouds.1 mph94%29.98 "HgN/A
Weather by CustomWeather, © 2014

See weather overviewHow to use our weather pages